Wetbulb
43.99 38.95 35.94 38.55 39.57 40.62 39.94 38.84 38.45 41.84 45.53 44.91 44.78 44.06 46.58 48.43 49.54 51.17 51.37 55.32 55.37 56.43 59.40 63.96 63.14 62.64 61.42 59.66 60.13 60.02 60.17 59.17 61.07 58.37 56.74 57.17 56.40 56.86 56.62 56.79 57.88 57.32 57.55 57.31
40.09 37.31 41.63 43.23 42.51 41.33 39.95 37.83 38.67 41.09 44.33 43.55 43.70 44.54 47.87 48.09 48.49 48.81 52.77 51.05 52.38 51.47 58.34 61.52 61.01 60.70 59.96 59.37 59.89 59.60 60.58 59.61 60.51 58.76 58.52 57.38 57.02 56.87 56.71 56.51 57.03 57.29 57.07 56.48
37.76 41.17 45.69 43.70 42.32 41.18 39.81 38.11 38.38 38.95 42.77 42.39 42.05 40.61 45.23 48.70 50.00 52.56 51.12 54.08 53.59 52.46 56.67 59.84 59.63 59.64 59.89 59.38 59.46 59.93 60.55 59.99 60.74 58.83 59.91 58.32 57.73 57.01 56.17 55.31 55.82 56.65 57.21 57.20
40.61 44.57 44.14 43.44 42.13 42.64 38.53 43.35 42.56 41.78 38.43 35.09 40.88 34.12 38.62 45.24 48.93 49.93 51.44 50.99 54.30 52.15 56.22 58.90 59.67 58.86 58.70 59.55 60.80 60.45 60.90 59.85 60.21 60.24 58.81 57.48 55.76 54.40 54.78 55.79 56.77 56.20 57.08 56.72
41.48 43.37 43.92 42.40 43.09 44.74 41.82 45.69 43.79 42.32 38.12 34.47 36.73 32.73 37.07 40.71 43.20 47.36 49.30 50.17 52.39 53.83 55.00 56.73 58.84 58.86 59.37 59.80 60.71 60.61 60.92 60.26 60.41 61.01 58.46 56.49 54.23 54.71 57.01 56.29 56.87 55.27 55.38 56.08
42.73 46.51 45.86 44.85 46.56 45.90 46.50 42.84 40.41 37.74 35.50 29.62 37.02 34.88 34.40 37.21 42.64 44.65 46.96 49.70 50.99 52.11 53.96 55.75 58.78 59.33 58.99 59.93 60.70 60.59 60.60 60.13 60.62 61.18 58.58 56.92 55.99 57.35 55.80 55.21 54.62 54.41 54.90 55.97
40.76 42.44 45.65 47.69 43.84 45.50 42.36 35.34 29.49 28.60 28.10 29.77 37.35 34.65 35.26 41.73 44.51 46.03 46.74 48.68 50.29 51.20 52.55 54.13 56.71 58.06 58.56 59.06 59.93 60.92 60.39 60.02 60.74 61.83 59.82 57.92 56.81 57.56 55.60 55.08 54.94 54.64 54.68 53.60
35.07 34.94 42.15 46.48 43.41 41.65 40.01 37.65 30.29 25.57 25.56 33.35 38.41 33.74 40.54 44.27 46.43 47.22 48.18 49.82 50.94 49.92 51.01 53.85 56.36 58.18 58.41 59.10 59.75 61.20 60.21 59.73 60.16 61.46 60.45 58.61 57.41 57.61 56.41 56.57 56.20 55.66 54.89 54.39
35.62 36.97 46.28 48.37 47.00 43.94 40.99 36.56 40.01 34.00 32.48 29.82 33.68 39.03 43.45 45.63 46.53 47.56 48.37 48.84 49.19 47.98 49.11 53.15 56.10 58.06 58.88 59.33 59.68 60.59 60.80 60.36 59.53 60.19 59.93 59.95 59.35 58.16 57.70 57.50 56.82 56.16 55.39 55.90
35.92 32.92 44.51 47.15 48.37 46.86 41.39 43.22 36.71 32.34 26.44 24.61 31.22 34.15 38.16 41.86 44.70 46.61 47.02 46.68 47.28 48.31 48.34 50.23 55.89 57.71 59.31 59.81 59.93 60.80 61.33 60.80 60.67 60.05 60.30 59.83 59.30 58.28 57.68 57.10 56.76 56.10 55.66 56.46
36.07 33.61 37.61 42.68 41.34 38.68 39.75 38.06 39.08 36.53 33.83 30.08 26.09 32.10 40.02 42.23 44.86 46.36 46.80 47.49 46.82 47.34 48.52 50.58 51.42 54.29 57.45 59.42 59.92 60.45 60.95 60.57 60.50 60.51 59.79 58.60 58.13 57.85 57.83 57.32 56.58 56.23 55.94 56.09
35.32 31.80 28.36 33.88 41.12 44.36 43.39 36.57 38.38 34.02 33.60 34.70 31.52 33.79 45.24 47.06 48.42 48.44 48.84 49.14 48.69 48.77 49.59 51.28 52.11 52.72 55.28 58.06 59.69 60.32 60.67 60.58 60.66 60.78 59.64 59.03 58.50 58.28 57.25 56.84 56.67 56.71 56.12 56.16
34.53 31.42 24.37 29.10 34.08 36.43 34.09 36.20 36.87 37.62 39.86 34.26 28.83 32.16 47.27 47.73 45.80 47.22 48.12 50.07 50.68 51.53 51.21 50.64 51.43 54.08 55.21 57.25 59.29 60.08 60.26 60.52 60.42 60.41 59.38 57.71 58.01 57.70 57.42 57.03 56.95 56.74 56.10 55.63
37.18 29.18 28.69 25.05 27.90 30.22 28.25 31.71 35.04 35.20 30.07 35.06 36.98 37.61 42.21 44.41 44.45 45.12 46.28 50.53 51.63 51.65 51.90 51.53 51.94 51.56 55.73 58.39 59.01 59.57 59.97 60.48 60.15 59.73 58.91 58.04 57.79 58.15 57.84 57.73 56.89 56.40 55.97 55.39
31.66 25.06 29.08 29.80 31.65 30.60 29.39 29.36 30.94 29.92 34.14 32.69 35.34 36.16 41.58 43.51 44.66 45.24 47.23 49.22 51.36 51.80 51.58 50.65 50.90 52.02 51.97 53.42 55.60 59.17 59.50 59.19 59.40 59.49 58.83 58.55 58.74 58.70 57.83 56.75 56.30 56.16 55.85 55.63
29.54 21.88 26.83 25.66 30.15 30.01 27.07 29.30 30.11 31.94 34.98 34.86 34.70 35.70 43.38 44.90 46.30 46.00 46.70 46.98 46.83 51.30 52.15 51.62 51.72 51.60 51.18 51.79 53.97 55.05 54.61 58.44 59.02 59.01 58.67 59.35 58.76 57.46 56.37 55.75 55.71 55.25 54.17 52.82
23.97 22.54 20.14 19.27 26.85 26.71 21.60 27.40 30.65 31.30 33.60 34.95 30.19 33.12 40.08 39.97 44.55 45.39 46.63 46.03 46.25 49.26 52.76 51.99 51.65 52.34 53.10 51.75 53.75 53.19 53.08 54.05 54.97 57.93 58.44 57.65 57.24 56.70 55.25 54.95 53.82 52.17 50.02 48.81
25.55 21.93 21.12 19.70 22.16 13.96 26.22 34.39 33.86 31.89 33.78 36.09 36.21 36.24 36.92 38.75 42.95 45.31 48.18 46.86 46.55 47.72 49.52 51.57 51.96 53.25 52.96 52.71 52.62 52.88 55.36 53.77 54.54 53.47 55.24 55.61 55.29 54.10 53.13 51.10 49.03 47.86 47.26 46.25
28.91 24.33 18.26 12.85 17.27 23.59 27.26 31.12 30.70 28.86 28.96 35.02 34.36 35.83 39.21 42.02 40.40 43.14 47.51 47.66 45.51 44.68 48.01 50.48 52.43 52.11 53.32 53.71 53.67 53.03 54.79 53.64 53.56 53.02 52.79 52.65 51.63 49.22 48.23 47.30 46.94 45.77 44.68 43.93
31.55 29.01 22.07 19.52 18.92 15.93 25.19 33.17 36.32 34.62 23.13 35.21 35.46 36.47 38.51 41.77 34.70 41.08 46.46 46.50 47.49 47.19 49.57 49.77 49.68 49.05 50.60 52.44 52.80 55.31 54.05 53.33 51.68 50.33 50.03 49.70 49.07 47.97 47.40 46.48 45.88 45.12 44.34 44.48
25.18 26.43 21.22 15.94 17.54 21.41 32.13 35.66 38.08 24.07 25.33 37.73 38.36 37.36 37.72 36.40 40.73 44.72 43.80 44.78 46.28 47.99 47.41 49.79 49.73 48.74 50.35 52.71 55.13 53.66 52.39 51.29 50.70 50.13 49.61 49.19 48.07 46.62 45.94 45.01 44.15 43.60 43.30 43.62
24.90 22.13 18.01 20.32 16.47 16.70 35.63 34.98 28.69 30.92 34.46 38.42 38.35 38.18 37.89 38.80 41.91 44.16 44.67 44.74 47.00 47.13 47.77 48.21 47.80 48.83 51.81 54.41 54.22 53.16 51.05 50.71 50.13 49.36 48.18 46.44 45.62 46.80 46.17 44.54 43.67 43.58 42.24 41.52
25.05 28.64 26.01 27.03 22.60 30.00 34.18 33.67 36.16 36.31 35.91 36.98 37.17 38.25 38.89 39.11 39.90 41.98 41.42 44.47 45.28 45.49 45.69 48.11 48.51 48.47 51.05 52.12 52.18 48.74 47.59 47.76 48.18 46.64 45.06 45.01 45.55 45.95 45.33 43.79 42.40 41.58 40.22 39.33
31.29 34.30 29.40 29.34 31.46 32.88 35.24 37.05 37.43 37.05 36.89 38.63 39.18 39.45 39.24 38.54 39.95 40.06 42.04 42.03 43.75 46.07 46.10 46.32 48.26 47.65 48.64 49.40 50.41 47.44 47.41 47.45 45.95 44.50 44.33 44.53 43.93 43.50 42.47 42.55 41.67 40.03 38.61 38.04
32.19 33.24 30.81 30.57 32.72 34.51 35.36 36.32 37.35 38.28 39.34 39.12 39.95 40.10 39.38 39.64 39.77 41.00 41.81 42.95 44.09 44.15 44.79 45.17 48.44 47.90 48.47 48.81 46.92 46.80 46.92 46.35 44.75 43.89 43.64 42.38 41.07 39.96 39.61 39.61 39.44 39.59 38.88 38.29
34.02 31.51 28.64 26.98 32.98 32.42 33.17 36.24 38.27 37.56 38.09 39.01 39.79 40.11 41.14 40.57 39.37 41.15 40.84 42.37 42.69 43.55 43.25 45.53 46.16 47.80 49.61 48.25 45.94 46.09 47.28 45.27 43.25 41.74 40.62 39.49 39.17 38.70 38.47 38.06 38.27 39.75 39.90 39.82
MSLP
1006.15 1007.03 1007.41 1007.77 1008.00 1008.22 1008.17 1007.88 1007.29 1005.81 1004.65 1004.57 1003.96 1003.50 1002.91 1002.68 1003.11 1003.71 1004.32 1004.54 1004.55 1005.07 1005.73 1006.22 1006.69 1007.52 1008.76 1009.74 1010.35 1010.93 1011.59 1012.35 1012.85 1013.84 1014.69 1015.24 1015.45 1015.74 1015.92 1016.01 1016.19 1016.43 1016.51 1016.73
1006.86 1006.58 1006.86 1006.98 1007.21 1007.51 1007.67 1007.72 1006.59 1005.98 1004.95 1004.96 1004.14 1003.25 1002.65 1002.60 1002.59 1003.18 1003.59 1004.52 1004.69 1005.37 1006.00 1006.77 1007.28 1007.74 1008.21 1008.97 1009.78 1010.47 1010.67 1011.41 1012.37 1013.23 1014.02 1014.53 1015.05 1015.58 1015.79 1016.08 1016.25 1016.30 1016.49 1016.81
1006.62 1006.24 1006.18 1006.55 1006.58 1006.94 1006.86 1006.79 1006.59 1006.15 1005.17 1004.75 1004.65 1003.97 1003.15 1002.42 1002.01 1002.98 1003.23 1003.21 1003.71 1004.32 1005.49 1006.35 1006.87 1007.04 1007.59 1008.26 1008.76 1009.25 1009.75 1010.75 1011.75 1012.79 1013.84 1014.73 1015.27 1015.81 1016.33 1016.52 1016.51 1016.44 1016.50 1016.75
1005.82 1005.50 1005.68 1005.76 1005.74 1005.91 1006.01 1005.61 1005.87 1005.71 1005.88 1005.83 1004.72 1004.51 1003.79 1002.40 1002.06 1001.58 1001.25 1002.31 1002.89 1003.61 1004.29 1004.93 1005.55 1006.36 1006.71 1007.15 1007.79 1008.41 1009.37 1010.35 1011.29 1012.35 1013.50 1014.31 1014.77 1015.63 1015.86 1016.00 1016.20 1016.45 1016.50 1016.69
1004.94 1005.09 1004.99 1004.84 1004.71 1004.77 1004.86 1004.67 1005.10 1005.34 1005.85 1005.95 1005.66 1005.43 1003.31 1002.73 1002.13 1000.83 1000.71 1001.00 1001.55 1002.29 1003.12 1004.20 1004.67 1004.97 1005.50 1006.38 1007.13 1007.87 1009.01 1010.01 1010.72 1011.46 1012.70 1013.87 1014.60 1015.06 1015.28 1015.76 1016.20 1016.46 1016.64 1016.77
1004.91 1004.29 1004.18 1003.76 1003.71 1004.02 1004.34 1004.71 1005.01 1005.35 1006.11 1006.71 1005.32 1005.17 1003.58 1002.95 1001.74 1000.96 1000.54 1000.04 1000.65 1001.41 1002.15 1002.91 1003.29 1004.21 1005.01 1005.97 1007.12 1007.91 1008.68 1009.63 1010.38 1010.86 1011.69 1012.80 1013.75 1014.62 1015.24 1015.80 1016.19 1016.47 1016.78 1017.05
1005.11 1004.35 1003.50 1003.42 1003.55 1003.47 1004.15 1005.07 1006.21 1006.79 1007.28 1006.52 1005.15 1005.15 1003.17 1002.07 1001.14 1000.55 1000.38 1000.09 999.97 1000.32 1000.96 1001.93 1003.18 1004.24 1004.97 1005.70 1006.57 1007.54 1008.21 1009.30 1010.04 1010.81 1011.39 1012.06 1012.96 1013.97 1014.74 1015.29 1015.78 1016.53 1016.89 1016.90
1007.24 1005.27 1004.07 1003.38 1003.27 1003.44 1003.89 1005.10 1006.61 1006.96 1007.64 1006.51 1005.62 1004.59 1001.26 1001.18 1000.65 1000.28 1000.07 999.71 999.56 1000.03 1000.28 1000.79 1001.38 1002.53 1003.63 1004.61 1005.59 1006.63 1007.75 1008.74 1009.63 1010.47 1011.31 1011.97 1012.60 1013.47 1014.27 1014.88 1015.47 1015.99 1016.26 1016.56
1010.07 1007.48 1005.37 1004.29 1003.54 1003.80 1003.58 1004.59 1004.82 1006.36 1007.18 1006.98 1005.85 1004.05 1001.37 1001.27 1000.65 1000.36 1000.03 999.74 999.47 999.04 999.42 999.78 1000.30 1001.24 1002.60 1003.68 1004.79 1005.62 1007.03 1008.27 1009.04 1010.03 1011.01 1011.74 1012.43 1013.15 1013.85 1014.51 1015.00 1015.45 1015.87 1016.41
1013.00 1010.85 1007.67 1005.69 1004.51 1004.09 1004.65 1004.32 1005.42 1006.61 1007.23 1007.19 1006.16 1004.64 1002.08 1002.10 1001.38 1000.45 999.66 999.25 999.36 999.01 999.26 999.70 1000.41 1000.83 1001.97 1003.12 1004.25 1005.45 1006.60 1007.35 1008.24 1009.51 1010.41 1011.29 1012.07 1012.65 1013.47 1014.15 1014.59 1015.03 1015.63 1016.08
1014.68 1013.50 1010.58 1008.68 1007.40 1008.03 1007.55 1007.59 1007.42 1007.18 1006.83 1007.03 1006.85 1004.91 1003.00 1002.76 1002.43 1001.63 1000.44 1000.04 999.85 999.71 999.82 1000.09 1000.42 1001.27 1002.05 1003.05 1004.15 1005.39 1006.59 1007.63 1008.60 1009.53 1010.25 1011.10 1011.77 1012.55 1013.37 1013.87 1014.28 1014.72 1015.25 1015.68
1016.23 1015.33 1013.80 1011.71 1010.25 1009.77 1009.88 1010.92 1010.02 1009.28 1008.63 1008.51 1007.42 1005.31 1004.75 1004.42 1003.78 1002.71 1001.97 1001.65 1001.31 1001.57 1001.34 1001.22 1001.44 1001.55 1002.15 1003.08 1004.10 1005.05 1006.32 1007.35 1008.04 1009.03 1010.14 1010.89 1011.54 1012.38 1013.19 1013.73 1014.09 1014.49 1014.85 1015.17
1016.92 1016.63 1015.69 1012.80 1012.01 1012.49 1012.96 1012.88 1012.27 1011.39 1010.36 1009.13 1009.12 1006.72 1005.61 1005.31 1005.05 1004.86 1003.96 1004.04 1002.50 1002.73 1003.14 1003.05 1002.84 1002.09 1002.34 1003.20 1004.04 1005.21 1006.15 1007.14 1008.20 1009.05 1009.87 1010.85 1011.56 1012.15 1012.69 1013.11 1013.52 1013.96 1014.36 1014.73
1017.82 1018.50 1018.44 1017.81 1017.47 1017.16 1016.04 1015.07 1014.01 1013.31 1012.12 1010.55 1009.15 1007.62 1006.81 1006.94 1006.87 1005.95 1005.49 1004.47 1004.53 1004.11 1003.89 1004.17 1004.15 1004.28 1003.99 1003.85 1004.58 1005.57 1006.38 1007.01 1007.79 1008.85 1009.73 1010.57 1011.12 1011.55 1012.05 1012.50 1013.01 1013.41 1013.81 1014.31
1018.81 1019.25 1019.27 1018.83 1018.40 1017.76 1016.88 1016.22 1015.47 1014.38 1012.74 1011.33 1009.94 1009.33 1008.37 1007.51 1007.55 1007.17 1006.75 1006.41 1005.61 1005.26 1005.21 1005.45 1005.21 1005.14 1005.54 1005.68 1005.73 1005.90 1006.38 1007.08 1007.76 1008.56 1009.41 1009.88 1010.17 1010.66 1011.23 1011.84 1012.49 1013.00 1013.49 1013.73
1019.14 1019.54 1019.36 1019.01 1018.68 1017.79 1016.66 1015.79 1015.31 1014.30 1012.59 1011.18 1010.37 1009.71 1009.21 1008.07 1007.47 1007.51 1007.74 1007.09 1007.07 1006.08 1006.14 1005.85 1006.23 1006.05 1006.48 1006.96 1006.79 1006.65 1007.04 1006.81 1007.15 1007.70 1008.38 1008.83 1009.60 1010.24 1010.89 1011.62 1012.23 1012.72 1013.11 1013.52
1019.45 1019.82 1020.03 1019.13 1018.88 1017.90 1016.34 1015.15 1014.52 1013.77 1012.73 1011.85 1010.92 1010.47 1009.53 1008.71 1008.05 1007.74 1007.77 1007.97 1007.79 1007.87 1006.58 1006.21 1006.37 1006.57 1006.40 1006.73 1006.95 1006.64 1006.84 1007.05 1007.81 1007.27 1007.85 1008.59 1009.39 1010.27 1011.03 1011.64 1012.35 1013.03 1013.56 1013.91
1018.77 1019.88 1020.18 1019.51 1018.94 1017.83 1015.39 1014.67 1013.81 1013.03 1012.31 1011.55 1010.87 1010.53 1010.22 1009.66 1009.00 1008.19 1008.30 1007.85 1007.65 1007.60 1006.96 1007.15 1006.64 1006.29 1006.82 1006.69 1006.51 1005.95 1006.09 1006.52 1007.11 1008.08 1007.98 1008.67 1009.55 1010.50 1011.47 1012.29 1012.89 1013.47 1013.81 1014.06
1017.86 1019.17 1019.98 1019.89 1019.01 1016.82 1015.43 1013.93 1013.20 1012.55 1011.23 1011.34 1010.89 1010.32 1010.35 1009.79 1009.31 1009.15 1008.69 1008.72 1008.73 1007.73 1007.19 1007.40 1007.32 1007.05 1006.66 1006.63 1006.35 1006.79 1006.63 1007.13 1007.43 1007.84 1008.53 1009.09 1009.70 1010.71 1011.69 1012.59 1013.21 1013.64 1013.85 1013.92
1017.14 1018.01 1019.59 1019.62 1019.15 1016.85 1013.51 1012.90 1012.35 1012.15 1011.55 1011.09 1010.82 1010.81 1010.52 1009.66 1009.56 1009.41 1008.15 1008.53 1009.09 1008.65 1007.98 1007.88 1007.84 1007.89 1007.24 1007.04 1007.62 1007.60 1007.66 1008.34 1008.94 1008.77 1009.43 1009.87 1010.46 1011.33 1011.93 1012.65 1013.49 1013.68 1013.61 1013.59
1017.23 1017.88 1018.68 1018.82 1018.08 1015.43 1013.14 1012.21 1012.05 1012.55 1012.25 1010.69 1010.44 1010.43 1010.46 1010.33 1010.09 1009.49 1008.63 1008.34 1009.09 1009.02 1008.29 1008.33 1008.82 1009.07 1008.26 1007.67 1007.84 1008.40 1008.03 1009.27 1009.53 1009.07 1009.45 1010.17 1010.81 1011.46 1012.21 1012.63 1012.91 1013.12 1013.31 1013.33
1016.41 1017.13 1017.27 1017.00 1016.43 1014.46 1012.45 1011.80 1012.00 1011.67 1011.31 1010.74 1010.38 1010.34 1010.58 1010.21 1009.91 1009.67 1009.10 1008.84 1008.83 1008.74 1008.37 1008.29 1009.43 1009.30 1008.78 1008.59 1007.99 1009.38 1010.31 1009.46 1008.82 1010.62 1011.08 1011.48 1011.42 1011.48 1011.64 1012.25 1013.15 1013.26 1013.29 1013.25
1015.33 1015.23 1014.93 1015.47 1013.49 1011.87 1010.88 1011.11 1010.94 1011.01 1010.55 1010.44 1010.22 1009.78 1009.90 1009.99 1009.74 1009.47 1009.38 1009.01 1008.74 1008.45 1008.58 1009.04 1008.85 1009.01 1008.73 1009.27 1009.25 1010.14 1010.14 1009.93 1009.57 1010.61 1011.49 1011.36 1011.61 1011.66 1012.31 1013.44 1013.41 1013.17 1012.95 1012.87
1013.50 1013.44 1013.33 1013.62 1011.07 1011.01 1010.83 1010.43 1010.30 1010.11 1009.64 1009.75 1009.58 1009.14 1009.19 1009.51 1009.23 1009.19 1009.01 1008.89 1008.68 1008.53 1008.69 1008.78 1008.86 1008.51 1008.47 1008.86 1009.21 1009.41 1009.51 1010.20 1010.66 1011.27 1011.46 1011.38 1011.85 1012.78 1013.27 1013.17 1012.93 1012.73 1012.70 1012.65
1012.15 1012.35 1011.32 1010.77 1009.87 1010.13 1009.53 1009.51 1009.29 1008.99 1008.81 1008.90 1008.78 1008.40 1008.52 1008.64 1008.66 1008.65 1008.67 1008.61 1008.41 1008.31 1008.30 1008.42 1008.51 1008.31 1008.84 1008.93 1009.39 1009.73 1009.98 1010.05 1010.63 1011.61 1012.43 1013.13 1013.09 1012.89 1012.91 1012.80 1012.61 1012.51 1012.36 1012.21
1010.80 1010.26 1010.51 1009.09 1008.84 1008.98 1008.23 1007.96 1008.13 1008.24 1007.89 1007.93 1008.10 1007.70 1007.56 1007.65 1007.86 1008.03 1008.17 1008.12 1008.19 1007.97 1008.09 1008.55 1008.68 1009.05 1009.25 1009.51 1010.02 1010.71 1010.47 1010.59 1011.79 1012.30 1012.75 1012.90 1012.62 1012.49 1012.57 1012.47 1012.26 1012.04 1011.95 1011.85
Wind_Speed
5 3 7 9 7 8 4 6 8 7 9 4 9 8 10 7 9 11 7 12 13 16 11 17 19 20 17 14 15 16 15 10 9 4 4 4 5 3 3 3 7 6 5 5
4 8 8 8 7 8 7 8 19 8 11 6 11 12 14 8 8 9 16 10 9 8 14 18 20 20 21 20 18 15 16 14 9 6 3 4 4 2 3 3 4 5 6 4
8 7 8 8 11 10 11 12 9 13 10 6 6 8 17 9 9 26 14 17 13 16 20 17 19 22 21 20 20 17 17 16 13 9 5 4 4 4 3 1 2 3 5 4
9 7 12 13 10 10 15 10 14 16 5 10 9 10 7 7 18 24 25 19 20 15 21 22 23 20 21 20 18 18 17 17 13 11 7 7 6 5 4 4 3 4 5 4
12 7 9 11 13 8 14 16 18 8 6 1 3 4 10 2 8 20 22 18 21 20 24 23 24 24 22 19 19 18 18 17 16 16 11 8 6 4 3 3 7 5 3 3
11 6 8 9 10 7 8 7 0 3 5 1 13 8 6 6 9 6 7 14 17 19 20 23 25 22 20 17 16 16 19 18 16 16 15 14 12 8 5 4 5 3 2 3
5 10 9 9 11 10 3 5 4 3 2 10 4 2 9 7 9 9 9 10 16 16 19 21 22 20 18 19 19 17 20 18 16 14 14 12 11 9 9 7 5 6 3 1
4 11 5 5 10 10 8 9 7 8 5 13 3 5 15 10 10 9 10 12 11 13 18 23 27 25 23 23 22 21 20 18 17 13 11 10 9 6 6 7 5 5 4 4
6 7 14 13 7 6 11 5 10 5 2 1 5 8 7 2 8 8 15 11 12 8 15 23 25 26 24 23 23 23 21 17 16 14 9 10 9 9 8 8 6 5 4 4
9 9 7 10 7 4 3 5 4 2 6 7 3 4 13 9 12 10 12 12 8 7 9 10 18 22 20 19 18 18 18 18 18 15 12 10 10 8 7 7 7 7 6 5
11 2 8 10 5 12 10 8 6 3 5 8 3 9 4 2 7 11 7 5 6 7 8 9 9 10 14 15 16 15 15 15 12 12 11 10 8 8 7 6 6 7 6 6
6 3 5 8 18 11 2 13 9 3 7 3 3 9 10 17 17 19 7 4 9 8 7 8 7 10 13 16 17 16 15 15 14 12 10 9 8 8 8 7 7 7 7 6
7 4 8 12 5 12 9 19 19 10 2 3 2 6 12 16 20 19 18 14 13 15 15 13 11 6 12 12 15 15 15 14 13 12 11 7 8 9 10 9 8 7 7 7
5 2 2 3 4 9 10 16 15 10 3 2 10 10 12 9 12 16 18 18 13 14 15 14 14 11 5 13 13 13 12 13 13 12 10 11 10 12 11 10 9 8 7 7
4 5 4 8 12 15 16 15 15 16 12 5 5 7 2 3 5 5 8 12 13 9 13 12 12 11 10 8 5 10 12 11 12 12 12 14 13 13 11 9 8 7 7 7
3 5 5 12 12 14 18 19 13 15 15 10 6 4 6 6 4 8 7 10 9 10 5 9 7 10 9 6 6 6 2 13 16 16 16 14 12 10 9 7 8 7 6 4
5 4 2 14 10 14 14 10 7 13 15 8 6 1 9 9 7 2 4 8 11 3 6 4 5 6 6 6 5 5 2 4 7 15 13 9 9 8 7 7 6 4 3 3
7 4 4 10 5 12 10 8 14 16 15 17 12 3 8 5 8 4 3 5 6 5 7 1 2 6 3 3 6 8 9 4 9 4 7 8 9 8 7 6 6 5 4 3
8 5 2 2 4 14 16 14 14 13 17 6 12 15 4 6 2 1 5 9 5 2 5 5 4 2 6 5 6 7 9 7 5 8 8 8 10 9 8 7 5 2 2 2
1 5 6 2 5 8 11 6 8 14 16 13 10 2 3 3 2 4 3 7 10 8 5 7 7 5 7 6 6 2 7 7 7 9 9 9 8 8 7 6 4 3 3 3
2 2 6 5 7 9 7 11 7 5 7 2 4 3 5 1 2 4 3 2 2 4 5 6 7 4 5 6 4 3 8 6 4 7 9 8 7 8 6 5 2 1 3 4
7 4 4 3 5 11 2 2 6 5 3 5 4 4 5 4 3 6 7 7 2 2 3 7 5 4 4 3 6 7 4 8 10 7 6 6 6 4 4 5 1 2 3 4
7 12 6 9 9 8 7 9 9 8 9 6 6 8 7 7 6 5 7 7 6 5 3 3 5 5 4 4 4 8 7 5 9 8 6 6 5 5 3 3 3 2 2 2
8 13 11 11 21 25 17 16 12 8 12 8 10 12 8 9 8 8 7 7 5 5 3 1 2 4 3 1 6 6 7 6 7 7 6 6 6 3 1 1 1 2 2 3
9 6 13 15 18 16 16 15 15 18 15 9 11 12 13 10 8 9 6 6 7 6 3 3 5 3 0 4 3 5 6 8 8 6 4 3 3 3 3 2 3 2 3 2
5 15 10 13 13 8 12 11 9 12 13 10 8 9 11 10 10 8 7 8 6 7 2 4 4 4 5 8 7 4 6 8 7 6 5 3 3 3 3 3 4 6 6 10
Wind_Direction
222 147 212 232 218 195 235 255 260 260 264 254 248 234 249 201 183 176 216 204 184 174 163 158 151 150 149 151 150 154 148 152 133 126 131 124 149 142 123 144 145 135 124 102
326 233 227 225 231 243 243 247 263 286 259 176 262 261 273 225 185 184 194 221 219 138 156 160 159 161 165 163 163 162 155 148 146 144 143 137 142 144 140 146 145 144 133 129
194 232 227 220 244 242 246 237 259 242 272 231 214 267 255 231 168 239 203 207 199 167 167 171 168 173 167 168 168 164 158 158 155 147 115 80 68 62 72 137 144 179 157 159
234 229 237 248 243 225 254 242 238 246 234 251 149 259 270 240 218 210 220 196 204 182 178 177 178 174 177 177 168 159 159 160 158 148 147 156 163 157 194 174 168 175 174 186
239 238 260 258 248 241 250 253 236 201 192 165 234 115 258 194 243 225 220 190 196 191 182 183 183 181 183 167 171 166 161 165 165 158 157 159 156 160 154 137 157 175 182 218
231 214 217 236 261 251 265 272 75 75 113 28 251 174 245 213 221 261 225 201 194 189 190 190 187 181 178 172 164 165 166 174 171 168 163 168 164 165 147 147 155 161 173 238
235 233 244 252 272 282 225 68 283 318 6 223 240 202 218 233 238 223 251 241 205 200 185 187 183 181 177 174 173 172 170 174 172 175 174 170 163 162 164 163 156 156 177 159
301 268 198 222 198 241 234 168 174 213 198 260 106 218 262 220 244 247 235 250 240 205 194 190 183 180 178 179 177 175 177 172 173 170 165 163 156 155 159 162 156 178 173 166
343 286 323 308 296 163 273 208 196 162 237 35 208 277 283 353 314 270 259 225 230 210 191 198 182 178 179 180 180 176 178 176 172 170 157 161 156 157 162 167 166 165 151 171
343 296 304 333 331 355 215 243 228 347 178 241 256 207 255 343 302 300 307 215 192 143 154 169 179 178 181 180 176 174 175 175 172 167 167 162 170 161 157 158 168 163 166 169
4 22 309 344 353 16 346 349 323 329 141 219 205 254 205 267 332 318 20 357 112 95 98 122 149 166 166 161 163 165 168 165 161 171 166 163 162 152 156 162 160 169 175 191
342 285 302 285 294 329 103 25 9 89 298 8 177 248 37 24 15 17 310 331 33 41 90 113 115 146 161 158 164 164 166 167 169 166 159 169 153 155 168 180 184 182 194 197
335 4 323 318 11 26 12 353 336 318 335 207 121 257 31 31 22 13 21 13 60 62 43 33 8 103 141 153 159 163 165 163 159 161 164 158 166 171 185 189 188 189 191 201
41 32 56 289 334 315 321 331 328 313 294 266 240 305 5 34 29 4 16 1 24 53 56 53 34 28 53 140 145 155 160 160 160 165 167 175 183 189 191 191 190 186 189 196
123 206 222 272 279 300 301 308 323 307 294 235 304 305 246 35 68 42 13 4 358 43 45 47 51 43 29 50 79 156 160 163 167 172 177 192 194 195 190 184 182 181 194 205
186 264 260 278 289 287 289 296 294 269 284 272 278 273 1 313 5 57 28 352 354 341 51 87 56 65 52 8 49 63 318 193 178 183 194 196 191 184 179 165 176 191 201 210
188 191 238 278 277 284 282 255 282 299 292 306 278 72 5 9 351 31 61 0 311 317 262 113 96 102 82 24 339 64 341 183 236 191 195 182 170 166 157 157 169 174 149 110
227 168 169 271 278 260 250 208 244 257 263 275 277 18 333 320 322 228 353 118 354 354 21 332 182 105 112 92 7 356 16 220 162 192 141 130 134 127 118 119 115 117 127 135
199 152 253 194 227 268 283 250 241 240 260 260 295 301 323 307 254 339 42 16 326 326 62 25 30 60 98 38 35 7 36 26 91 112 107 100 105 110 116 121 127 125 124 196
251 169 154 156 248 262 244 269 256 255 268 259 256 222 343 299 180 240 289 76 346 353 41 48 25 1 39 21 327 160 111 98 80 84 96 106 113 118 116 121 158 188 200 233
202 253 202 210 234 267 257 245 264 230 246 180 172 189 122 95 256 244 248 268 51 311 53 68 65 39 349 335 49 7 111 94 95 92 97 93 90 100 126 137 138 293 296 282
190 186 212 213 195 268 175 355 180 214 286 185 186 193 163 201 270 270 231 248 232 327 349 86 80 39 10 354 126 139 201 163 126 108 111 114 110 93 76 66 302 256 275 297
242 212 227 212 216 221 207 189 253 234 234 200 231 244 212 188 237 227 265 230 245 219 215 161 143 101 55 94 166 155 167 129 96 101 112 99 97 85 74 209 227 264 344 4
246 242 244 247 243 253 265 264 252 234 240 239 227 234 200 205 225 235 220 267 226 217 220 314 86 98 90 19 126 136 125 113 111 117 104 72 69 90 67 167 122 72 31 332
251 267 250 252 262 265 259 246 254 261 257 227 233 224 220 206 221 223 225 220 227 218 212 174 156 130 169 144 126 122 123 115 96 94 110 138 138 115 103 69 74 53 291 250
196 248 239 251 250 222 255 244 239 253 261 264 231 240 228 198 216 221 222 201 210 219 179 177 177 151 150 138 125 128 124 112 129 121 128 130 112 86 71 51 358 344 340 334